Weather History for Pinedale, WY

Change the Weather History Date:

Saturday, November 16, 2013

  Actual Average (KBPI) Record (KBPI)
Temperature  
Mean Temperature 23 °F 24 °F  
Max Temperature 32 °F 37 °F 59 °F (1999)
Min Temperature 14 °F 10 °F -27 °F (1978)
Degree Days  
Heating Degree Days 42 42  
Month to date heating degree days 599  
Since 1 July heating degree days 2179  
Cooling Degree Days 0 0  
Month to date cooling degree days 0  
Year to date cooling degree days 35  
Moisture  
Dew Point 20 °F    
Average Humidity 85    
Maximum Humidity 100    
Minimum Humidity 60    
Precipitation  
Precipitation 0.00 in 0.01 in 0.15 in (1996)
Month to date precipitation 0.12  
Year to date precipitation 6.09  
Sea Level Pressure  
Sea Level Pressure 29.48 in    
Wind  
Wind Speed 7 mph (SW)    
Max Wind Speed 24 mph    
Max Gust Speed 33 mph    
Visibility 7 miles    
Events Snow    
T = Trace of Precipitation, MM = Missing Value Source: NWS Daily Summary

Daily Weather History Graph

Daily Weather History Graph

Search for Another Location

Airport:

Trip Planner

Search our weather history database for the weather conditions in past years. The results will help you decide how hot, cold, wet, or windy it might be!

Date:

Astronomy

Nov. 16, 2013 Rise Set
Actual Time 7:12 AM MST 4:54 PM MST
Civil Twilight 6:42 AM MST 5:25 PM MST
Nautical Twilight 6:07 AM MST 5:59 PM MST
Astronomical Twilight 5:34 AM MST 6:33 PM MST
Moon 4:33 PM MST (11/16) 6:11 AM MST (11/16)
Length of Visible Light 10h 43m
Length of Day
9h 42m
Waxing Gibbous, 99% of the Moon is Illuminated
Nov 16
Waxing Gibbous
Nov 17
Full
Nov 25
Last Quarter
Dec 2
New
Dec 9
First Quarter

Hourly Weather History & Observations

Time (MST) Temp. Windchill Dew Point Humidity Pressure Visibility Wind Dir Wind Speed Gust Speed Precip Events Conditions
12:15 AM 14.0 °F - 12.2 °F 93% 29.57 in 10.0 mi Calm Calm - N/A   Scattered Clouds
12:35 AM 15.8 °F 10.2 °F 14.0 °F 93% 29.58 in 10.0 mi NW 3.5 mph - N/A   Mostly Cloudy
12:55 AM 17.6 °F 12.3 °F 15.8 °F 93% 29.57 in 10.0 mi North 3.5 mph - N/A   Overcast
1:15 AM 17.6 °F - 15.8 °F 93% 29.56 in 10.0 mi Calm Calm - N/A   Mostly Cloudy
1:35 AM 17.6 °F - 17.6 °F 100% 29.56 in 10.0 mi Calm Calm - N/A   Mostly Cloudy
1:55 AM 17.6 °F - 15.8 °F 93% 29.55 in 10.0 mi Calm Calm - N/A   Mostly Cloudy
2:15 AM 19.4 °F - 15.8 °F 86% 29.54 in 10.0 mi Calm Calm - N/A   Overcast
2:35 AM 19.4 °F 14.3 °F 17.6 °F 93% 29.53 in 10.0 mi ESE 3.5 mph - N/A   Overcast
2:55 AM 19.4 °F 12.8 °F 17.6 °F 93% 29.53 in 10.0 mi ESE 4.6 mph - N/A   Overcast
3:15 AM 19.4 °F 11.5 °F 17.6 °F 93% 29.51 in 10.0 mi ESE 5.8 mph - N/A   Overcast
3:35 AM 19.4 °F 11.5 °F 17.6 °F 93% 29.51 in 10.0 mi ESE 5.8 mph - N/A   Mostly Cloudy
3:55 AM 19.4 °F 10.4 °F 15.8 °F 86% 29.49 in 10.0 mi ESE 6.9 mph - N/A   Overcast
4:15 AM 19.4 °F 12.8 °F 17.6 °F 93% 29.49 in 10.0 mi SE 4.6 mph - N/A   Overcast
4:35 AM 19.4 °F 12.8 °F 17.6 °F 93% 29.49 in 10.0 mi ESE 4.6 mph - N/A   Overcast
4:55 AM 19.4 °F 12.8 °F 17.6 °F 93% 29.48 in 10.0 mi ESE 4.6 mph - N/A   Overcast
5:15 AM 21.2 °F 14.9 °F 19.4 °F 93% 29.48 in 7.0 mi East 4.6 mph - N/A   Overcast
5:35 AM 21.2 °F 12.6 °F 19.4 °F 93% 29.47 in 3.0 mi East 6.9 mph - N/A Snow Light Snow
5:55 AM 21.2 °F 14.9 °F 21.2 °F 100% 29.48 in 2.0 mi ESE 4.6 mph - N/A Snow Light Snow
6:15 AM 23.0 °F 14.7 °F 21.2 °F 93% 29.47 in 1.8 mi ESE 6.9 mph - N/A Snow Light Snow
6:35 AM 23.0 °F 15.8 °F 21.2 °F 93% 29.47 in 0.8 mi ESE 5.8 mph - N/A Snow Snow
6:55 AM 23.0 °F 15.8 °F 21.2 °F 93% 29.46 in 1.2 mi East 5.8 mph - N/A Snow Light Snow
7:15 AM 23.0 °F 15.8 °F 23.0 °F 100% 29.46 in 1.2 mi East 5.8 mph - N/A Snow Light Snow
7:35 AM 23.0 °F 14.7 °F 23.0 °F 100% 29.46 in 3.0 mi ESE 6.9 mph - N/A Snow Light Snow
7:55 AM 23.0 °F 14.7 °F 23.0 °F 100% 29.46 in 4.0 mi ESE 6.9 mph - N/A Snow Light Snow
8:15 AM 23.0 °F 14.7 °F 23.0 °F 100% 29.46 in 2.5 mi ESE 6.9 mph - N/A Snow Light Snow
8:35 AM 24.8 °F 16.1 °F 24.8 °F 100% 29.46 in 1.5 mi SE 8.1 mph - N/A Snow Light Snow
8:55 AM 26.6 °F 17.5 °F 24.8 °F 93% 29.46 in 1.5 mi SSE 9.2 mph - N/A Snow Light Snow
9:15 AM 26.6 °F 16.8 °F 24.8 °F 93% 29.46 in 2.0 mi SSE 10.4 mph - N/A Snow Light Snow
9:35 AM 26.6 °F 16.2 °F 24.8 °F 93% 29.45 in 4.0 mi SSE 11.5 mph 16.1 mph N/A Snow Light Snow
9:55 AM 26.6 °F 16.8 °F 24.8 °F 93% 29.46 in 5.0 mi SSE 10.4 mph - N/A   Overcast
10:15 AM 26.6 °F 16.8 °F 24.8 °F 93% 29.46 in 10.0 mi SSE 10.4 mph - N/A   Overcast
10:35 AM 28.4 °F 19.1 °F 24.8 °F 86% 29.46 in 7.0 mi South 10.4 mph - N/A   Overcast
10:55 AM 28.4 °F 18.5 °F 23.0 °F 80% 29.46 in 10.0 mi South 11.5 mph - N/A   Overcast
11:15 AM 28.4 °F 18.5 °F 24.8 °F 86% 29.45 in 2.5 mi SSE 11.5 mph - N/A Snow Light Snow
11:35 AM 30.2 °F 24.3 °F 26.6 °F 86% 29.45 in 2.5 mi SSW 5.8 mph - N/A Snow Light Snow
11:55 AM 30.2 °F 23.4 °F 23.0 °F 75% 29.43 in 7.0 mi SSW 6.9 mph - N/A Snow Light Snow
12:15 PM 30.2 °F 21.9 °F 23.0 °F 75% 29.43 in 10.0 mi SW 9.2 mph - N/A Snow Light Snow
12:35 PM 30.2 °F 21.9 °F 23.0 °F 75% 29.42 in 5.0 mi WSW 9.2 mph - N/A Snow Light Snow
12:55 PM 32.0 °F 24.8 °F 21.2 °F 64% 29.41 in 10.0 mi West 8.1 mph - N/A   Overcast
1:15 PM 32.0 °F 21.6 °F 19.4 °F 60% 29.41 in 10.0 mi West 15.0 mph - N/A   Overcast
1:35 PM 32.0 °F 21.6 °F 19.4 °F 60% 29.41 in 10.0 mi WSW 15.0 mph 18.4 mph N/A   Mostly Cloudy
1:55 PM 32.0 °F 22.1 °F 19.4 °F 60% 29.40 in 10.0 mi West 13.8 mph - N/A   Scattered Clouds
2:15 PM 32.0 °F 23.6 °F 19.4 °F 60% 29.40 in 10.0 mi West 10.4 mph - N/A   Scattered Clouds
2:35 PM 32.0 °F 21.2 °F 21.2 °F 64% 29.40 in 10.0 mi SW 16.1 mph 21.9 mph N/A   Mostly Cloudy
2:55 PM 32.0 °F 20.1 °F 19.4 °F 60% 29.40 in 10.0 mi WSW 19.6 mph 24.2 mph N/A   Scattered Clouds
3:15 PM 32.0 °F 22.1 °F 21.2 °F 64% 29.41 in 10.0 mi West 13.8 mph 20.7 mph N/A   Clear
3:35 PM 32.0 °F 21.6 °F 21.2 °F 64% 29.41 in 10.0 mi WSW 15.0 mph - N/A   Clear
3:55 PM 30.2 °F 20.8 °F 21.2 °F 69% 29.41 in 10.0 mi WSW 11.5 mph 16.1 mph N/A   Clear
4:15 PM 30.2 °F 19.8 °F 21.2 °F 69% 29.41 in 10.0 mi WSW 13.8 mph 18.4 mph N/A   Scattered Clouds
4:35 PM 30.2 °F 17.8 °F 21.2 °F 69% 29.42 in 10.0 mi WSW 19.6 mph 24.2 mph N/A   Scattered Clouds
4:55 PM 28.4 °F 17.0 °F 23.0 °F 80% 29.43 in 10.0 mi WSW 15.0 mph - N/A   Mostly Cloudy
5:15 PM 28.4 °F 17.0 °F 26.6 °F 93% 29.45 in 1.2 mi West 15.0 mph 21.9 mph N/A Snow Light Snow
5:35 PM 26.6 °F 15.2 °F 23.0 °F 86% 29.45 in 10.0 mi WSW 13.8 mph 19.6 mph N/A   Scattered Clouds
5:55 PM 26.6 °F 15.7 °F 23.0 °F 86% 29.45 in 7.0 mi WSW 12.7 mph 20.7 mph N/A Snow Light Snow
6:15 PM 26.6 °F 16.2 °F 23.0 °F 86% 29.46 in 10.0 mi West 11.5 mph - N/A Snow Light Snow
6:35 PM 26.6 °F 15.7 °F 23.0 °F 86% 29.46 in 3.0 mi West 12.7 mph - N/A Snow Light Snow
6:55 PM 26.6 °F 16.2 °F 23.0 °F 86% 29.47 in 4.0 mi West 11.5 mph 17.3 mph N/A Snow Light Snow
7:15 PM 26.6 °F 14.7 °F 24.8 °F 93% 29.48 in 0.8 mi WNW 15.0 mph 20.7 mph N/A Snow Snow
7:35 PM 24.8 °F 11.9 °F 24.8 °F 100% 29.49 in 0.2 mi West 16.1 mph 26.5 mph N/A Snow Snow
7:55 PM 24.8 °F 12.9 °F 23.0 °F 93% 29.50 in 0.5 mi West 13.8 mph 23.0 mph N/A Snow Snow
8:15 PM 23.0 °F 13.1 °F 23.0 °F 100% 29.50 in 10.0 mi West 9.2 mph - N/A   Overcast
8:35 PM 23.0 °F 10.6 °F 21.2 °F 93% 29.51 in 10.0 mi West 13.8 mph 19.6 mph N/A   Mostly Cloudy
8:55 PM 23.0 °F 6.9 °F 15.8 °F 74% 29.51 in 10.0 mi West 24.2 mph 33.4 mph N/A   Scattered Clouds
9:15 PM 23.0 °F 10.1 °F 12.2 °F 63% 29.53 in 10.0 mi West 15.0 mph - N/A   Clear
9:35 PM 21.2 °F 8.3 °F 12.2 °F 68% 29.54 in 10.0 mi West 13.8 mph 18.4 mph N/A   Clear
9:55 PM 19.4 °F 7.2 °F 10.4 °F 68% 29.55 in 10.0 mi West 11.5 mph - N/A   Scattered Clouds
10:15 PM 21.2 °F 6.8 °F 14.0 °F 74% 29.57 in 7.0 mi WNW 17.3 mph 20.7 mph N/A Snow Light Snow
10:35 PM 21.2 °F 6.0 °F 19.4 °F 93% 29.58 in 3.0 mi WNW 19.6 mph 25.3 mph N/A Snow Light Snow
10:55 PM 21.2 °F 6.8 °F 17.6 °F 86% 29.59 in 10.0 mi WNW 17.3 mph - N/A   Mostly Cloudy
11:15 PM 19.4 °F 6.0 °F 17.6 °F 93% 29.59 in 10.0 mi WNW 13.8 mph - N/A   Scattered Clouds
11:35 PM 17.6 °F 4.3 °F 15.8 °F 93% 29.61 in 10.0 mi WNW 12.7 mph - N/A   Clear
11:55 PM 17.6 °F 6.4 °F 14.0 °F 86% 29.62 in 10.0 mi WNW 9.2 mph - N/A   Clear